Regional Weather Roundup
Issued by NWS

Home | Current Version | Previous Version | Graphics & Text | Print | Product List | Glossary Off
Versions: 1 2 3 4 5 6 7 8 9 10 11 12 13 14 15 16 17 18 19 20 21 22 23 24 25 26 27 28 29 30 31 32 33 34 35 36 37 38 39 40 41 42 43 44 45 46 47 48 49 50

500
ASUS43 KTOP 260259
RWRKS

WEATHER ROUNDUP FOR KANSAS
NATIONAL WEATHER SERVICE GOODLAND KS
900 PM CST SAT FEB 25 2017

NOTE:  "FAIR" INDICATES FEW OR NO CLOUDS BELOW 12,000 FEET WITH NO
SIGNIFICANT WEATHER AND/OR OBSTRUCTIONS TO VISIBILITY.

KSZ001>006-013>018-027>032-041>047-260400-
NORTHWEST KANSAS

CITY           SKY/WX    TMP DP  RH WIND       PRES   REMARKS
GOODLAND       CLOUDY    19   7  59 E6        29.83S
HAYS           PTCLDY    35  15  44 VRB7      29.93R
HILL CITY      CLEAR     28  12  51 N5        29.89F
RUSSELL        PTCLDY    30  13  49 S10       29.90S WCI  21
$$

KSZ061>065-074>080-084>089-260400-
SOUTHWEST KANSAS

CITY           SKY/WX    TMP DP  RH WIND       PRES   REMARKS
DODGE CITY     PTCLDY    33  14  45 SE10      29.88S WCI  25
ELKHART          N/A     36   7  30 E7          N/A
GARDEN CITY    CLEAR     37  15  40 SE23G30   29.84S WCI  26
GREAT BEND     CLOUDY    35  13  40 SE15      29.93  WCI  25
LIBERAL        CLOUDY    39  16  38 S13       29.84S WCI  32
$$

KSZ066>073-081>083-090>101-260400-
SOUTHEAST KANSAS

CITY           SKY/WX    TMP DP  RH WIND       PRES   REMARKS
CHANUTE        CLEAR     28  14  55 S6        30.08R
COFFEYVILLE    CLEAR     36  15  42 S6        30.09R
HUTCHINSON     CLEAR     32  17  54 SE8       29.98F
MEDICINE LODGE   N/A     35  17  47 SE9       29.95F
NEWTON         CLEAR     32  18  56 S12       30.00F WCI  23
PARSONS        CLEAR     33  13  43 CALM      30.10R
WICHITA INTL   CLEAR     33  19  56 SE8       30.00F
WICHITA JABRA  CLEAR     31  18  58 S8        30.01F
WINFIELD       CLEAR     36  19  50 SE6       30.04F
$$

KSZ007>012-019>026-033>040-048>060-102>105-260400-
NORTHEAST KANSAS

CITY           SKY/WX    TMP DP  RH WIND       PRES   REMARKS
CONCORDIA      MOCLDY    35  15  44 S15       29.92S WCI  25
EMPORIA        CLEAR     30  16  56 S10       30.03S WCI  21
LAWRENCE       CLOUDY    31  16  54 SE5       30.03F
MANHATTAN      CLEAR     37  16  42 SW13      29.98S WCI  29
OLATHE IND     CLOUDY    29  14  53 S6        30.05S
OLATHE EXE     PTCLDY    31  11  43 S5        30.04S
SALINA         CLEAR     36  15  42 S12       29.96S WCI  28
TOPEKA BILLARD PTCLDY    37  12  35 S5        30.02S
TOPEKA FORBES  PTCLDY    37  12  35 S9        30.01F
$$




USA.gov is the U.S. government's official web portal to all federal, state and local government web resources and services.